Litchfield, IL

5:18 AM CST on February 22, 2017 (GMT -0600)
Litchfield

Weather History for K3LF - December, 2012

Change the Weather History Date:

Sunday, December 16, 2012

  Actual Average (KALN) Record (KALN)
Temperature  
Mean Temperature 43 °F -  
Max Temperature 49 °F 39 °F 64 °F (2006)
Min Temperature 37 °F 25 °F 10 °F (2007)
Degree Days  
Heating Degree Days 22    
Moisture  
Dew Point 41 °F    
Average Humidity 90    
Maximum Humidity 98    
Minimum Humidity 78    
Precipitation  
Precipitation 0.02 in - - ()
Sea Level Pressure  
Sea Level Pressure 29.71 in    
Wind  
Wind Speed 6 mph (WNW)    
Max Wind Speed 10 mph    
Max Gust Speed -    
Visibility 7 miles    
Events Fog    
Averages and records for this station are not official NWS values.
T = Trace of Precipitation, MM = Missing Value Source: NWS Daily Summary

Daily Weather History Graph

Daily Weather History Graph

Search for Another Location

Airport or City:

Trip Planner

Search our weather history database for the weather conditions in past years. The results will help you decide how hot, cold, wet, or windy it might be!

Date:

Astronomy

Dec. 16, 2012 Rise Set
Actual Time 7:11 AM CST 4:37 PM CST
Civil Twilight 6:41 AM CST 5:07 PM CST
Nautical Twilight 6:08 AM CST 5:41 PM CST
Astronomical Twilight 5:35 AM CST 6:13 PM CST
Moon 9:46 AM CST (12/16) 8:50 PM CST (12/16)
Length of Visible Light 10h 25m
Length of Day
9h 25m
Waxing Crescent, 16% of the Moon is Illuminated
Dec 16
Waxing Crescent
Dec 19
First Quarter
Dec 28
Full
Jan 4
Last Quarter
Jan 11
New

Hourly Weather History & Observations

Time (CST) Temp. Windchill Dew Point Humidity Pressure Visibility Wind Dir Wind Speed Gust Speed Precip Events Conditions
12:15 AM 43.3 °F 39.2 °F 42.8 °F 98% 29.69 in 0.2 mi SSW 6.9 mph - N/A Fog Fog
12:35 AM 43.3 °F 39.2 °F 42.6 °F 97% 29.69 in 0.2 mi South 6.9 mph - N/A Fog Fog
12:55 AM 43.7 °F 42.1 °F 42.8 °F 97% 29.68 in 0.2 mi South 3.5 mph - N/A Fog Fog
1:15 AM 42.3 °F 38.6 °F 41.5 °F 97% 29.69 in 0.5 mi South 5.8 mph - N/A Fog Fog
1:35 AM 43.3 °F 39.2 °F 42.8 °F 98% 29.69 in 0.5 mi SSW 6.9 mph - N/A Fog Fog
1:55 AM 43.3 °F 40.7 °F 42.8 °F 98% 29.70 in 1.0 mi SW 4.6 mph - N/A   Mist
2:15 AM 41.7 °F 38.8 °F 41.0 °F 97% 29.70 in 0.8 mi SW 4.6 mph - N/A   Mist
2:35 AM 41.9 °F 38.2 °F 41.2 °F 97% 29.70 in 1.2 mi SW 5.8 mph - N/A   Overcast
2:55 AM 43.0 °F 39.5 °F 42.3 °F 97% 29.70 in 3.0 mi SSW 5.8 mph - N/A   Mostly Cloudy
3:15 AM 42.8 °F 40.1 °F 42.1 °F 97% 29.70 in 3.0 mi SSW 4.6 mph - N/A   Scattered Clouds
3:35 AM 42.3 °F 38.6 °F 41.7 °F 98% 29.69 in 1.2 mi SSW 5.8 mph - N/A   Mist
3:55 AM 41.0 °F 38.0 °F 40.5 °F 98% 29.69 in 0.5 mi SSW 4.6 mph - N/A Fog Fog
4:15 AM 40.6 °F 36.7 °F 40.1 °F 98% 29.69 in 0.5 mi SSW 5.8 mph - N/A Fog Fog
4:35 AM 40.3 °F 35.5 °F 39.7 °F 98% 29.69 in 4.0 mi SSW 6.9 mph - N/A   Clear
4:55 AM 42.8 °F 38.6 °F 41.9 °F 97% 29.69 in 10.0 mi SW 6.9 mph - N/A   Scattered Clouds
5:15 AM 43.0 °F 38.8 °F 42.3 °F 97% 29.70 in 10.0 mi SW 6.9 mph - N/A   Mostly Cloudy
5:35 AM 43.3 °F 38.6 °F 42.6 °F 97% 29.70 in 10.0 mi WSW 8.1 mph - N/A   Scattered Clouds
6:15 AM 41.9 °F 38.2 °F 40.6 °F 95% 29.72 in 10.0 mi SW 5.8 mph - N/A   Clear
6:35 AM 42.8 °F 39.3 °F 41.5 °F 95% 29.72 in 10.0 mi WSW 5.8 mph - N/A   Clear
6:55 AM 43.3 °F 39.2 °F 42.1 °F 95% 29.72 in 10.0 mi WSW 6.9 mph - N/A   Clear
7:15 AM 43.2 °F 38.4 °F 41.7 °F 95% 29.73 in 10.0 mi WSW 8.1 mph - N/A   Clear
7:35 AM 43.0 °F 38.2 °F 41.7 °F 95% 29.73 in 7.0 mi WSW 8.1 mph - 0.01 in   Clear
8:15 AM 43.7 °F 39.1 °F 42.3 °F 95% 29.74 in 7.0 mi SW 8.1 mph - N/A   Clear
8:55 AM 45.9 °F 40.8 °F 44.1 °F 93% 29.75 in 10.0 mi West 10.4 mph - N/A   Clear
9:15 AM 46.4 °F 42.4 °F 43.9 °F 91% 29.75 in 10.0 mi West 8.1 mph - N/A   Clear
9:35 AM 46.8 °F - 43.9 °F 90% 29.74 in 10.0 mi West 6.9 mph - N/A   Clear
9:55 AM 47.5 °F - 44.4 °F 89% 29.74 in 10.0 mi West 9.2 mph - N/A   Scattered Clouds
10:15 AM 47.7 °F - 44.1 °F 87% 29.74 in 10.0 mi West 9.2 mph - N/A   Scattered Clouds
10:35 AM 48.2 °F - 44.2 °F 86% 29.73 in 10.0 mi WNW 8.1 mph - N/A   Mostly Cloudy
10:55 AM 48.2 °F - 43.9 °F 85% 29.73 in 10.0 mi NW 6.9 mph - N/A   Mostly Cloudy
11:15 AM 49.1 °F - 43.9 °F 82% 29.72 in 10.0 mi West 8.1 mph - N/A   Scattered Clouds
11:35 AM 49.3 °F - 43.9 °F 82% 29.71 in 10.0 mi WNW 5.8 mph - N/A   Mostly Cloudy
11:55 AM 49.5 °F - 43.3 °F 79% 29.69 in 10.0 mi NW 3.5 mph - N/A   Mostly Cloudy
12:15 PM 49.1 °F - 42.6 °F 78% 29.70 in 10.0 mi West 6.9 mph - N/A   Scattered Clouds
12:35 PM 49.1 °F - 43.0 °F 79% 29.69 in 10.0 mi West 4.6 mph - 0.01 in   Clear
12:55 PM 49.3 °F - 43.0 °F 79% 29.68 in 10.0 mi West 5.8 mph - 0.01 in   Scattered Clouds
1:15 PM 48.6 °F - 43.5 °F 83% 29.69 in 10.0 mi Calm Calm - N/A   Mostly Cloudy
1:35 PM 49.1 °F - 43.7 °F 82% 29.68 in 10.0 mi North 6.9 mph - N/A   Overcast
1:55 PM 48.6 °F - 43.0 °F 81% 29.69 in 10.0 mi Calm Calm - N/A   Overcast
2:15 PM 49.1 °F - 42.8 °F 79% 29.69 in 10.0 mi West 4.6 mph - N/A   Overcast
2:35 PM 48.7 °F - 43.0 °F 80% 29.68 in 10.0 mi North 3.5 mph - N/A   Overcast
2:55 PM 48.6 °F - 42.4 °F 79% 29.68 in 10.0 mi Calm Calm - N/A   Overcast
3:15 PM 48.6 °F - 42.6 °F 80% 29.68 in 10.0 mi Calm Calm - N/A   Mostly Cloudy
3:35 PM 48.6 °F - 42.6 °F 80% 29.68 in 10.0 mi North 3.5 mph - N/A   Overcast
3:55 PM 47.7 °F - 43.2 °F 84% 29.69 in 10.0 mi North 9.2 mph - N/A   Overcast
4:15 PM 47.3 °F - 42.6 °F 84% 29.69 in 10.0 mi North 8.1 mph - N/A   Overcast
4:35 PM 45.9 °F 41.2 °F 42.3 °F 87% 29.70 in 7.0 mi NNE 9.2 mph - N/A   Overcast
4:55 PM 45.5 °F 40.8 °F 41.9 °F 87% 29.70 in 7.0 mi North 9.2 mph - N/A   Overcast
5:15 PM 44.8 °F 40.4 °F 41.0 °F 87% 29.71 in 10.0 mi North 8.1 mph - N/A   Overcast
5:35 PM 44.4 °F 39.5 °F 40.8 °F 87% 29.73 in 10.0 mi North 9.2 mph - N/A   Overcast
5:55 PM 43.7 °F 39.1 °F 40.1 °F 87% 29.73 in 10.0 mi North 8.1 mph - N/A   Overcast
6:15 PM 43.0 °F 37.7 °F 39.9 °F 89% 29.73 in 10.0 mi North 9.2 mph - N/A   Mostly Cloudy
6:35 PM 43.0 °F 38.8 °F 39.9 °F 89% 29.73 in 10.0 mi North 6.9 mph - N/A   Overcast
6:55 PM 43.2 °F 38.4 °F 40.1 °F 89% 29.73 in 10.0 mi NNE 8.1 mph - N/A   Overcast
7:15 PM 41.9 °F 38.2 °F 38.8 °F 89% 29.72 in 10.0 mi NE 5.8 mph - N/A   Mostly Cloudy
7:35 PM 40.8 °F 37.8 °F 37.9 °F 89% 29.73 in 10.0 mi NNE 4.6 mph - N/A   Clear
7:55 PM 40.8 °F 36.9 °F 38.3 °F 91% 29.74 in 7.0 mi North 5.8 mph - N/A   Scattered Clouds
8:35 PM 40.3 °F 37.1 °F 38.1 °F 92% 29.75 in 7.0 mi North 4.6 mph - N/A   Overcast
8:55 PM 41.0 °F 38.0 °F 38.5 °F 91% 29.74 in 7.0 mi NNE 4.6 mph - N/A   Overcast
9:15 PM 40.5 °F 35.8 °F 38.3 °F 92% 29.74 in 7.0 mi North 6.9 mph - N/A   Mostly Cloudy
9:35 PM 40.5 °F 36.5 °F 38.3 °F 92% 29.75 in 7.0 mi North 5.8 mph - N/A   Mostly Cloudy
9:55 PM 39.7 °F 35.6 °F 37.6 °F 92% 29.75 in 7.0 mi North 5.8 mph - N/A   Mostly Cloudy
10:15 PM 38.7 °F 35.2 °F 37.0 °F 94% 29.75 in 7.0 mi North 4.6 mph - N/A   Scattered Clouds
10:35 PM 37.6 °F 32.3 °F 36.5 °F 96% 29.75 in 5.0 mi North 6.9 mph - N/A   Clear
10:55 PM 38.7 °F 33.6 °F 37.4 °F 95% 29.75 in 5.0 mi North 6.9 mph - N/A   Mostly Cloudy
11:15 PM 39.2 °F 33.6 °F 37.6 °F 94% 29.75 in 7.0 mi North 8.1 mph - N/A   Overcast
11:35 PM 39.2 °F 34.2 °F 37.4 °F 93% 29.75 in 7.0 mi North 6.9 mph - N/A   Mostly Cloudy
11:55 PM 39.2 °F 35.0 °F 37.4 °F 93% 29.75 in 7.0 mi North 5.8 mph - N/A   Mostly Cloudy